Flag for Germany Weather past 2 weeks in Paderborn, North Rhine-Westphalia, Germany

Now
46 °F

Clear.


Feels Like: 42 °F
Forecast: 50 / 74 °F
Wind: 8 mph from South

Location: Paderborn / Lippstadt


UV Index: 3 (Moderate)

Visibility: 10 mi


Pressure: 30.09 "Hg

Humidity: 87%

Dew point: 43 °F

Location of PaderbornLocation

Historic Weather in Paderborn

°F

Paderborn temperature yesterday

Maximum temperature yesterday: 66 °F (at 2:20 PM)
Minimum temperature yesterday: 43 °F (at 5:50 AM)
Average temperature yesterday: 54 °F

Past Weeks' High & Low Weather Summary

 TemperatureHumidityPressure
High66 °F (Apr 23, 2:20 PM)100% (Apr 9, 9:50 PM)30.45 "Hg (Apr 9, 9:50 PM)
Low28 °F (Apr 16, 4:50 AM)29% (Apr 17, 5:50 PM)29.65 "Hg (Apr 21, 3:20 PM)
Average49 °F71%30.05 "Hg
* Reported Apr 9 4:20 AM — Apr 24 4:50 AM, Paderborn, Weather by CustomWeather, © 2014

Note: Actual official high and low records may vary slightly from our data, if they occured in-between our weather recording intervals... More about our weather records

Advertising

Historic Weather Conditions — Data for Previous 24 hours

 ConditionsComfort  
Time TempWeatherWind HumidityBarometerVisibility
4:50 AM
Apr 24
45 °FClear.8 mph93%30.12 "Hg10 mi
4:20 AM45 °FClear.10 mph93%30.12 "Hg10 mi
3:50 AM43 °FClear.7 mph100%30.12 "Hg10 mi
3:20 AM46 °FClear.8 mph93%30.12 "Hg10 mi
11:50 PM
Apr 23
50 °FClear.9 mph94%30.15 "Hg10 mi
11:20 PM46 °FClear.5 mph93%30.15 "Hg10 mi
10:50 PM46 °FPassing clouds.3 mph100%30.12 "HgN/A
10:20 PM48 °FClear.2 mph94%30.12 "Hg10 mi
9:50 PM50 °FClear.2 mph88%30.12 "Hg10 mi
9:20 PM50 °FSunny.2 mph88%30.12 "Hg10 mi
8:50 PM50 °FSunny.3 mph88%30.12 "Hg10 mi
8:20 PM54 °FSunny.7 mph77%30.12 "Hg10 mi
7:50 PM55 °FSunny.10 mph77%30.09 "Hg10 mi
7:20 PM57 °FSunny.7 mph67%30.09 "Hg10 mi
6:50 PM55 °FPassing clouds.7 mph82%30.09 "HgN/A
6:20 PM55 °FPassing clouds.6 mph82%30.09 "HgN/A
5:50 PM55 °FThundershowers. Scattered clouds.8 mph77%30.09 "HgN/A
5:20 PM54 °FThunderstorms. Scattered clouds.10 mph82%30.12 "HgN/A
4:50 PM55 °FThunderstorms. Scattered clouds.12 mph77%30.12 "HgN/A
4:20 PM59 °FThundershowers. Scattered clouds.3 mph68%30.12 "HgN/A
3:50 PM63 °FScattered showers. Scattered clouds.5 mph56%30.09 "HgN/A
3:20 PM64 °FScattered showers. Scattered clouds.6 mph52%30.09 "HgN/A
2:50 PM64 °FScattered clouds.6 mph46%30.09 "HgN/A
2:20 PM66 °FSunny.3 mph46%30.09 "Hg10 mi
1:50 PM64 °FPassing clouds.8 mph49%30.09 "HgN/A
1:20 PM64 °FSunny.5 mph49%30.12 "Hg10 mi
12:50 PM64 °FPassing clouds.3 mph52%30.12 "HgN/A
12:20 PM63 °FPassing clouds.5 mph52%30.12 "HgN/A
11:50 AM63 °FSunny.6 mph52%30.12 "Hg10 mi
11:20 AM63 °FPassing clouds.3 mph52%30.12 "HgN/A
10:50 AM61 °FPassing clouds.3 mph55%30.12 "HgN/A
10:20 AM61 °FClear.3 mph55%30.12 "Hg6 mi
9:50 AM55 °FClear.2 mph77%30.12 "Hg6 mi
9:20 AM54 °FClear.6 mph82%30.09 "Hg6 mi
8:50 AM52 °FClear.2 mph88%30.09 "Hg6 mi
8:20 AM48 °FClear.2 mph94%30.09 "Hg6 mi
7:50 AM46 °FClear.7 mph93%30.09 "Hg6 mi
7:20 AM43 °FClear.9 mph100%30.09 "Hg6 mi
6:50 AM43 °FClear.7 mph100%30.09 "Hg6 mi
6:20 AM43 °FClear.2 mph100%30.09 "Hg6 mi
Weather by CustomWeather, © 2014

See weather overview